STARLINK-30250 (57527 NORAD) Tracking and Keplerian Element Data

This shows tracking and keplerian element data for the satellite.

Feedback or suggestion? Click here.




ElementValue
Catalog57527
NameSTARLINK-30250
Epoch Orbit2485
Epoch Day12.85275652
Epoch Year2024
RAAN320.1942
Inclination43.0034
Eccentricity4.87E-05
Argument of Perigee252.132
Mean Anonmoly107.9469
Mean Motion15.02541826
Decay Rate0.00022182
L11 57527U 23115G 24012.85275652 .00022182 00000+0 16517-2 0 9993
L22 57527 43.0034 320.1942 0000487 252.1320 107.9469 15.02541826 24856



Live tracking and technical data element details for STARLINK-30250 (NORAD 57527). STARLINK-30250 can be tracked NOW for your location showing map with azimuth and elevation plus other details from your city location.







IsCatalogInMostPopularTable: catalog: 57527, numindb: 25
Update: records affected: 1



GetName: 57527 STARLINK-30250

Hit Count: updated at: Thu, 29 Feb 2024 11:18:36 GMT